Regional Weather Roundup
Issued by NWS Columbia, SC

Home | Current Version | Previous Version | Text Only | Print | Product List | Glossary On
Versions: 1 2 3 4 5 6 7 8 9 10 11 12 13 14 15 16 17 18 19 20 21 22 23 24 25 26 27 28 29 30 31 32 33 34 35 36 37 38 39 40 41 42 43 44 45 46 47 48 49 50
000
ASUS42 KCAE 080510
RWRCAE
REGIONAL WEATHER ROUNDUP
NATIONAL WEATHER SERVICE COLUMBIA SC
100 AM EDT WED JUL 08 2015

NOTE: "FAIR" INDICATES FEW OR NO CLOUDS BELOW 12,000 FEET WITH NO
SIGNIFICANT WEATHER AND/OR OBSTRUCTIONS TO VISIBILITY.

NOT ALL STATIONS ARE QUALITY CONTROLLED BY THE NATIONAL
WEATHER SERVICE. USE DATA WITH CAUTION...ESPECIALLY
DEWPOINT OBSERVATIONS.

SCZ001>056-GAZ040-063>065-077-080600-
...UPSTATE SOUTH CAROLINA...

CITY           SKY/WX    TMP DP  RH WIND       PRES   REMARKS
ANDERSON       MOCLDY    76  72  87 CALM      30.15S
SPARTANBURG      N/A     79  70  73 SW3       30.13S
CLEMSON        MOCLDY    79  70  74 W5        30.16F
GREENVILLE     MOCLDY    79  69  71 W8        30.16S
GREENWOOD      MOCLDY    76  71  85 SW6       30.16R
GREER          MOCLDY    77  69  76 W6        30.13F
ROCK HILL      MOCLDY    76  70  82 SW7       30.14S
LAURENS        PTCLDY    73  73 100 CALM      30.14S


...CENTRAL SOUTH CAROLINA...

CITY           SKY/WX    TMP DP  RH WIND       PRES   REMARKS
COLUMBIA APT   PTCLDY    79  70  74 SW5       30.13S
COLUMBIA OWENS PTCLDY    79  70  74 CALM      30.14F
DARLINGTON     MOCLDY    75  70  83 S7        30.14S
FLORENCE       MOCLDY    77  72  84 SW6       30.13F
MCENTIRE ANGB  PTCLDY    73  70  93 CALM      30.14F
ORANGEBURG     PTCLDY    73  70  90 CALM      30.14F
SUMTER SHAW    PTCLDY    76  71  83 SW7       30.12F
NEWBERRY       PTCLDY    75  70  83 SW5       30.17S
BARNWELL       FAIR      77  72  83 CALM      30.15F
MANNING        FAIR      77  70  78 SW5       30.14F
CAMDEN         FAIR      77  72  83 CALM      30.14S
LANCASTER      MOCLDY    75  73  94 S3        30.14S
WINNSBORO      MOCLDY    77  72  83 S5        30.14S


...EASTERN AND COASTAL SOUTH CAROLINA...

CITY           SKY/WX    TMP DP  RH WIND       PRES   REMARKS
MYRTLE BEACH   CLEAR     81  73  78 SW9         N/A
N MYRTLE BCH   CLEAR     80  74  81 SW10      30.15S
CONWAY         FAIR      73  73 100 S3        30.15F FOG
MARION         FAIR      75  72  88 CALM      30.14S
HARTSVILLE     FAIR      73  70  88 SW3       30.13S
FLORENCE       MOCLDY    77  72  84 SW6       30.13F
DARLINGTON     MOCLDY    75  70  83 S7        30.14S
CHARLESTON APT PTCLDY    76  74  93 S3        30.15F
MOUNT PLEASANT LGT RAIN  79  75  89 S7        30.15F
WALTERBORO     PTCLDY    73  72  94 SW5       30.15F
BEAUFORT       CLEAR     77  73  87 S5        30.15F


...EASTERN GEORGIA...

CITY           SKY/WX    TMP DP  RH WIND       PRES   REMARKS
AUGUSTA BUSH F PTCLDY    76  72  87 S3        30.13F
AUGUSTA DANIEL PTCLDY    80  72  76 SW6       30.15F
THOMSON        PTCLDY    77  76  96 CALM      30.19S
WASHINGTON     FAIR      79  77  94 SW3       30.15S
CLAXTON        FAIR      72  70  94 CALM      30.15F
SYLVANIA       PTCLDY    76  73  89 CALM      30.16F
SAVANNAH       CLEAR     74  70  87 CALM      30.16F


...SOUTHERN NORTH CAROLINA...

CITY           SKY/WX    TMP DP  RH WIND       PRES   REMARKS
CHARLOTTE      CLOUDY    78  67  68 S5        30.13S
MONROE         MOCLDY    77  70  79 SW7       30.12F
WADESBORO      MOCLDY    79  71  76 S6        30.11F
ROCKINGHAM     MOCLDY    76  71  84 S5        30.12F
RUTHERFORDTON  PTCLDY    73  68  86 CALM      30.14F
ASHEVILLE      PTCLDY    70  65  84 NW3       30.21F

$$



USA.gov is the U.S. government's official web portal to all federal, state and local government web resources and services.